Regional Weather Roundup
Issued by NWS Kansas City/Pleasant Hill, MO

Home | Current Version | Previous Version | Text Only | Print | Product List | Glossary On
Versions: 1 2 3 4 5 6 7 8 9 10 11 12 13 14 15 16 17 18 19 20 21 22 23 24 25 26 27 28 29 30 31 32 33 34 35 36 37 38 39 40 41 42 43 44 45 46 47 48 49 50
000
ASUS43 KEAX 091710
RWREAX

WEATHER ROUNDUP FOR EASTERN KANSAS AND NORTHWEST MISSOURI
NATIONAL WEATHER SERVICE KANSAS CITY/PLEASANT HILL MO
1100 AM CST TUE FEB 09 2016

KSZ040-057-103>105-MOZ028-029-037-043-091800-
...KANSAS CITY METROPOLITAN AREA...

CITY           SKY/WX    TMP DP  RH WIND       PRES   REMARKS
K.C. INTL      MOSUNNY   22  10  60 NW21G30   30.19R WCI   6
K.C. DOWNTOWN  SUNNY     24   9  52 NW17G26   30.20R WCI  11
LEES SUMMIT    SUNNY     23   8  52 NW21      30.18R WCI   8
OLATHE - IXD   SUNNY     26  10  50 NW22G28   30.20R WCI  12
OLATHE - OJC   SUNNY     23   8  52 N17G28    30.19R WCI   9
LAWRENCE       SUNNY     27   8  44 N23G31    30.23R WCI  12

$$

MOZ001>008-011>017-020>025-030>033-038>040-044>046-053-054-091800-
...NORTHERN AND CENTRAL MISSOURI...

CITY           SKY/WX    TMP DP  RH WIND       PRES   REMARKS
ST. JOSEPH     MOSUNNY   22   8  55 NW22G32   30.22R WCI   6
MOSBY          SUNNY     21   9  58 NW15G24   30.20R WCI   8
WARRENSBURG    SUNNY     23  10  58 NW16G24   30.18R WCI  10
WHITEMAN AFB   MOSUNNY   22   9  56 NW15      30.14R WCI   9
CLINTON          N/A     28  12  50 NW17      30.17R WCI  16
SEDALIA        MOSUNNY   22   9  57 NW21      30.15R WCI   6
WARSAW         NOT AVBL
CHILLICOTHE      N/A     20   8  60 NW13G24   30.17R WCI   7
KIRKSVILLE     FLURRIES  19   6  57 NW15G24   30.08R WCI   5

$$

MOZ041-047>049-056>058-063>065-088>090-097-091800-
...EASTERN AND SOUTHERN MISSOURI...

CITY           SKY/WX    TMP DP  RH WIND       PRES   REMARKS
ST. LOUIS INTL FLURRIES  21   9  59 NW15G24   30.02R WCI   8
SPIRIT OF STL  CLOUDY    20  10  65 NW20G26   30.04R WCI   4
COLUMBIA       PTSUNNY   21   8  57 NW17      30.08R WCI   7
JEFFERSON CITY CLOUDY    21   7  54 NW16G25   30.11R WCI   7
ROLLA          CLOUDY    20   9  62 W18       30.03R WCI   5
OSAGE BEACH    CLOUDY    21   7  53 W10G20    30.11R WCI  10
SPRINGFIELD    MOSUNNY   29   9  43 NW25G41   30.10R WCI  14
BRANSON        MOSUNNY   32   5  32 NW20G35   30.08R WCI  20
JOPLIN         SUNNY     33  10  38 NW17      30.19R WCI  22
WEST PLAINS    CLOUDY    24   9  52 NW16G26   30.04R WCI  11

$$

IAZ060-094-KSZ022-034>040-054-083-096-NEZ052-066-093-091800-
...KANSAS...SOUTHEAST NEBRASKA AND IOWA...

CITY           SKY/WX    TMP DP  RH WIND       PRES   REMARKS
TOPEKA         SUNNY     28   3  34 NW23G32   30.25R WCI  14
MANHATTAN      SUNNY     30   4  33 N15G26    30.29R WCI  19
EMPORIA        SUNNY     31   4  31 N26G35    30.23R WCI  17
CHANUTE        SUNNY     34   5  29 N15G30    30.22R WCI  24
WICHITA        PTSUNNY   36  18  48 N26G33    30.29R WCI  24
OMAHA          MOSUNNY   16   5  62 N23G30    30.28R WCI  -2
LINCOLN        SUNNY     21   8  57 N20       30.30R WCI   6
FALLS CITY     SUNNY     22   7  52 NW18G31   30.24R WCI   7
LAMONI         SUNNY     16   5  62 NW17G28   30.14R WCI   0
DES MOINES     MOSUNNY   13   3  64 NW20G26   30.15R WCI  -5

$$




USA.gov is the U.S. government's official web portal to all federal, state and local government web resources and services.